Satellite: PCSAT
Catalog number: 26931
Epoch time:      103116.91907229
Element set:     459 
Inclination:       67.0463 deg
RA of node:        82.2203 deg
Eccentricity:    0.0006001
Arg of perigee:   275.3138 deg
Mean anomaly:      84.7284 deg
Mean motion:   14.29151734 rev/day
Decay rate:    1.3799E-006 rev/day^2
Epoch rev:            8197
Checksum:              308

Satellite: SAPPHIRE
Catalog number: 26932
Epoch time:      103116.53909786
Element set:     453 
Inclination:       67.0528 deg
RA of node:        82.8890 deg
Eccentricity:    0.0003968
Arg of perigee:   268.9523 deg
Mean anomaly:      91.1123 deg
Mean motion:   14.29320302 rev/day
Decay rate:    9.2999E-007 rev/day^2
Epoch rev:            8194
Checksum:              335

Satellite: ENVISAT
Catalog number: 27386
Epoch time:      103116.54114101
Element set:     10 
Inclination:       98.5435 deg
RA of node:       184.1351 deg
Eccentricity:    0.0000969
Arg of perigee:    93.2444 deg
Mean anomaly:     266.8851 deg
Mean motion:   14.32249694 rev/day
Decay rate:    1.4700E-006 rev/day^2
Epoch rev:            6033
Checksum:              282

Satellite: IDEFIX/ARIANE 
Catalog number: 27422
Epoch time:      103116.86800554
Element set:     289 
Inclination:       98.6837 deg
RA of node:       195.7234 deg
Eccentricity:    0.0011771
Arg of perigee:   316.9625 deg
Mean anomaly:      43.0634 deg
Mean motion:   14.28006754 rev/day
Decay rate:    1.9599E-006 rev/day^2
Epoch rev:            5106
Checksum:              326

Satellite: FENGYUN 1D
Catalog number: 27431
Epoch time:      103117.18916862
Element set:     270 
Inclination:       98.7541 deg
RA of node:       164.3169 deg
Eccentricity:    0.0014366
Arg of perigee:   294.2809 deg
Mean anomaly:      65.6975 deg
Mean motion:   14.09184701 rev/day
Decay rate:    1.7900E-006 rev/day^2
Epoch rev:            4889
Checksum:              331

Satellite: NOAA 17
Catalog number: 27453
Epoch time:      103117.61428306
Element set:     390 
Inclination:       98.7447 deg
RA of node:       188.4262 deg
Eccentricity:    0.0012214
Arg of perigee:   155.6125 deg
Mean anomaly:     204.5635 deg
Mean motion:   14.23335782 rev/day
Decay rate:    2.5100E-006 rev/day^2
Epoch rev:            4364
Checksum:              290

Satellite: HOT BIRD 6
Catalog number: 27499
Epoch time:      103104.14052927
Element set:     73 
Inclination:        0.0313 deg
RA of node:       303.0505 deg
Eccentricity:    0.0012771
Arg of perigee:   138.1476 deg
Mean anomaly:     184.1937 deg
Mean motion:    1.00273600 rev/day
Decay rate:    9.9999E-009 rev/day^2
Epoch rev:             237
Checksum:              282

Satellite: RUBIN 2
Catalog number: 27605
Epoch time:      103116.72938723
Element set:     117 
Inclination:       64.5577 deg
RA of node:       353.2887 deg
Eccentricity:    0.0034970
Arg of perigee:    82.4132 deg
Mean anomaly:     278.0939 deg
Mean motion:   14.71474585 rev/day
Decay rate:    5.6200E-006 rev/day^2
Epoch rev:            1869
Checksum:              331

Frase del giorno:
La parola esagerazione non esiste nel vocabolario dell'amore (Luciano De 
Crescenzo)
73 Ciao Renzo.

li, domenica 27 aprile 2003  19.38 (+ 2.00) CST

  /___/____/
 /   /    /
     ||
     || I6KZR  Fermo, Italy
     || BBS    I6KZR@IK6WID.#AP.IMAR.ITA.EU
     || e_mail i6kzr@i6kzr.it
     || web http://www.i6kzr.it
     || TCPip: 44.134.243.003

Messaggio inviato con Sally V3.2.124 software packet per Windows 32bit.

<TO="I6KZR@IK6WID.#AP.IMAR.ITA.EU" TITLE="Old Istantrak Keplerians #117" 
CONTENT="">


Read previous mail | Read next mail


 19.09.2025 01:04:43lGo back Go up